Weather in derevnya Vizyabozh

Russia / Komi Republic     61°45′20″N   51°15′35″E
temp.,
°C
wind,
m/s
gust,
m/s
humid.,
%
clouds,
%
prec.,
mm/h
press.,
hPa
HPBL,
m
20 january, wed
wed2000:00−20s2698100 0.0 1013184
03:00−20ssw2698100 0.1 1012199
06:00−19s3697100 0.1 1009227
09:00−19ssw369799 0.3 1009241
12:00−17ssw2595100 0.3 1007253
15:00−18ssw2497100 0.4 1006118
18:00−17sw2497100 0.2 1006117
21:00−15wsw259799 0.3 1006178
21 january, thu
thu2100:00−17w269794 0.1 1007143
03:00−20w259995 0.2 1008110
06:00−22w249999 0.0 1008116
09:00−21w2398100 0.1 1009135
12:00−19w2396100 0.1 1010234
15:00−20wnw139899 0.3 1010119
18:00−21wnw229997 0.1 101157
21:00−21nw229893 0.1 101343
22 january, fri
fri2200:00−22nw129997 0.1 101447
03:00−23n129993 0.1 101720
06:00−25ne259996 0.0 1019108
09:00−28ene259890 0.1 1022105
12:00−25ene23950 0.0 1024179
15:00−27ene23971 0.0 102539
18:00−28e239777 0.0 102767
21:00−26ese259688 0.0 1027142
23 january, sat
sat2300:00−25se2696100 0.0 1027186
03:00−23se3894100 0.0 1026269
06:00−21se4992100 0.0 1025351
09:00−20se41097100 0.6 1023415
12:00−19se51196100 1.3 1021445
15:00−19se41097100 2.1 1020535
18:00−20se4896100 0.5 1020497
21:00−20se3895100 0.7 1019414
24 january, sun
sun2400:00−20se3894100 0.1 1019418
03:00−19se4997100 1.3 1018356
06:00−18se4897100 1.0 1016359
09:00−16sse3895100 1.9 1016349
12:00−13s2594100 0.6 1016342
15:00−13s1296100 0.8 101646
18:00−13s1296100 0.1 101722
21:00−11s1297100 0.3 101733